Time,TemperatureF,DewpointF,PressureIn,WindDirection,WindDirectionDegrees,WindSpeedMPH,WindSpeedGustMPH,Humidity,HourlyPrecipIn,Conditions,Clouds,dailyrainin,SoftwareType,DateUTC
2013-07-12 00:00:00,67.0,-99.9,-100.00,North,-999,-999.0,-999.0,-999,0.00,,,0.00,,2013-07-12 04:00:00,
2013-07-12 00:43:00,67.0,-99.9,-100.00,North,-999,-999.0,-999.0,-999,0.00,,,0.00,,2013-07-12 04:43:00,
2013-07-12 00:53:00,67.0,-99.9,-100.00,North,-999,-999.0,-999.0,-999,0.00,,,0.00,,2013-07-12 04:53:00,
2013-07-12 01:00:00,67.0,-99.9,-100.00,North,-999,-999.0,-999.0,-999,0.00,,,0.00,,2013-07-12 05:00:00,
2013-07-12 01:43:00,67.0,-99.9,-100.00,North,-999,-999.0,-999.0,-999,0.00,,,0.00,,2013-07-12 05:43:00,
2013-07-12 01:53:00,67.0,-99.9,-100.00,North,-999,-999.0,-999.0,-999,0.00,,,0.00,,2013-07-12 05:53:00,
2013-07-12 02:00:00,65.0,-99.9,-100.00,North,-999,-999.0,-999.0,-999,0.00,,,0.00,,2013-07-12 06:00:00,
2013-07-12 02:42:00,65.0,-99.9,-100.00,North,-999,-999.0,-999.0,-999,0.00,,,0.00,,2013-07-12 06:42:00,
2013-07-12 02:52:00,65.0,-99.9,-100.00,North,-999,-999.0,-999.0,-999,0.00,,,0.00,,2013-07-12 06:52:00,
2013-07-12 03:00:00,64.0,-99.9,-100.00,North,-999,-999.0,-999.0,-999,0.00,,,0.00,,2013-07-12 07:00:00,
2013-07-12 03:43:00,64.0,-99.9,-100.00,North,-999,-999.0,-999.0,-999,0.00,,,0.00,,2013-07-12 07:43:00,
2013-07-12 03:53:00,64.0,-99.9,-100.00,North,-999,-999.0,-999.0,-999,0.00,,,0.00,,2013-07-12 07:53:00,
2013-07-12 04:00:00,63.0,-99.9,-100.00,North,-999,-999.0,-999.0,-999,0.00,,,0.00,,2013-07-12 08:00:00,
2013-07-12 04:42:00,63.0,-99.9,-100.00,North,-999,-999.0,-999.0,-999,0.00,,,0.00,,2013-07-12 08:42:00,
2013-07-12 04:53:00,63.0,-99.9,-100.00,North,-999,-999.0,-999.0,-999,0.00,,,0.00,,2013-07-12 08:53:00,
2013-07-12 05:00:00,62.0,-99.9,-100.00,North,-999,-999.0,-999.0,-999,0.00,,,0.00,,2013-07-12 09:00:00,
2013-07-12 05:43:00,62.0,-99.9,-100.00,North,-999,-999.0,-999.0,-999,0.00,,,0.00,,2013-07-12 09:43:00,
2013-07-12 05:52:00,62.0,-99.9,-100.00,North,-999,-999.0,-999.0,-999,0.00,,,0.00,,2013-07-12 09:52:00,
2013-07-12 06:00:00,61.0,-99.9,-100.00,North,-999,-999.0,-999.0,-999,0.00,,,0.00,,2013-07-12 10:00:00,
2013-07-12 06:43:00,61.0,-99.9,-100.00,North,-999,-999.0,-999.0,-999,0.00,,,0.00,,2013-07-12 10:43:00,
2013-07-12 06:53:00,61.0,-99.9,-100.00,North,-999,-999.0,-999.0,-999,0.00,,,0.00,,2013-07-12 10:53:00,
2013-07-12 07:00:00,61.0,-99.9,-100.00,North,-999,-999.0,-999.0,-999,0.00,,,0.00,,2013-07-12 11:00:00,
2013-07-12 07:43:00,61.0,-99.9,-100.00,North,-999,-999.0,-999.0,-999,0.00,,,0.00,,2013-07-12 11:43:00,
2013-07-12 07:53:00,61.0,-99.9,-100.00,North,-999,-999.0,-999.0,-999,0.00,,,0.00,,2013-07-12 11:53:00,
2013-07-12 08:00:00,63.0,-99.9,-100.00,North,-999,-999.0,-999.0,-999,0.00,,,0.00,,2013-07-12 12:00:00,
2013-07-12 08:43:00,63.0,-99.9,-100.00,North,-999,-999.0,-999.0,-999,0.00,,,0.00,,2013-07-12 12:43:00,
2013-07-12 08:53:00,63.0,-99.9,-100.00,North,-999,-999.0,-999.0,-999,0.00,,,0.00,,2013-07-12 12:53:00,
2013-07-12 09:00:00,65.0,-99.9,-100.00,North,-999,-999.0,-999.0,-999,0.00,,,0.00,,2013-07-12 13:00:00,
2013-07-12 09:43:00,65.0,-99.9,-100.00,North,-999,-999.0,-999.0,-999,0.00,,,0.00,,2013-07-12 13:43:00,
2013-07-12 09:53:00,65.0,-99.9,-100.00,North,-999,-999.0,-999.0,-999,0.00,,,0.00,,2013-07-12 13:53:00,
2013-07-12 10:00:00,69.0,-99.9,-100.00,North,-999,-999.0,-999.0,-999,0.00,,,0.00,,2013-07-12 14:00:00,
2013-07-12 10:44:00,69.0,-99.9,-100.00,North,-999,-999.0,-999.0,-999,0.00,,,0.00,,2013-07-12 14:44:00,
2013-07-12 10:53:00,69.0,-99.9,-100.00,North,-999,-999.0,-999.0,-999,0.00,,,0.00,,2013-07-12 14:53:00,
2013-07-12 11:00:00,70.0,-99.9,-100.00,North,-999,-999.0,-999.0,-999,0.00,,,0.00,,2013-07-12 15:00:00,
2013-07-12 11:43:00,70.0,-99.9,-100.00,North,-999,-999.0,-999.0,-999,0.00,,,0.00,,2013-07-12 15:43:00,
2013-07-12 11:53:00,70.0,-99.9,-100.00,North,-999,-999.0,-999.0,-999,0.00,,,0.00,,2013-07-12 15:53:00,
2013-07-12 12:00:00,74.0,-99.9,-100.00,North,-999,-999.0,-999.0,-999,0.00,,,0.00,,2013-07-12 16:00:00,
2013-07-12 12:43:00,74.0,-99.9,-100.00,North,-999,-999.0,-999.0,-999,0.00,,,0.00,,2013-07-12 16:43:00,
2013-07-12 13:00:00,78.0,-99.9,-100.00,North,-999,-999.0,-999.0,-999,0.00,,,0.00,,2013-07-12 17:00:00,
2013-07-12 13:47:00,78.0,-99.9,-100.00,North,-999,-999.0,-999.0,-999,0.00,,,0.00,,2013-07-12 17:47:00,
2013-07-12 13:58:00,78.0,-99.9,-100.00,North,-999,-999.0,-999.0,-999,0.00,,,0.00,,2013-07-12 17:58:00,
2013-07-12 14:00:00,73.0,-99.9,-100.00,North,-999,-999.0,-999.0,-999,0.00,,,0.00,,2013-07-12 18:00:00,
2013-07-12 14:59:00,73.0,-99.9,-100.00,North,-999,-999.0,-999.0,-999,0.00,,,0.00,,2013-07-12 18:59:00,
2013-07-12 15:00:00,67.0,-99.9,-100.00,North,-999,-999.0,-999.0,-999,0.10,,,0.10,,2013-07-12 19:00:00,
2013-07-12 15:50:00,67.0,-99.9,-100.00,North,-999,-999.0,-999.0,-999,0.10,,,0.10,,2013-07-12 19:50:00,
2013-07-12 16:00:00,67.0,-99.9,-100.00,North,-999,-999.0,-999.0,-999,0.01,,,0.11,,2013-07-12 20:00:00,
2013-07-12 16:48:00,67.0,-99.9,-100.00,North,-999,-999.0,-999.0,-999,0.01,,,0.11,,2013-07-12 20:48:00,
2013-07-12 17:00:00,67.0,-99.9,-100.00,North,-999,-999.0,-999.0,-999,0.00,,,0.11,,2013-07-12 21:00:00,
2013-07-12 17:52:00,67.0,-99.9,-100.00,North,-999,-999.0,-999.0,-999,0.00,,,0.11,,2013-07-12 21:52:00,
2013-07-12 18:00:00,67.0,-99.9,-100.00,North,-999,-999.0,-999.0,-999,0.01,,,0.12,,2013-07-12 22:00:00,
2013-07-12 18:48:00,67.0,-99.9,-100.00,North,-999,-999.0,-999.0,-999,0.01,,,0.12,,2013-07-12 22:48:00,
2013-07-12 18:58:00,67.0,-99.9,-100.00,North,-999,-999.0,-999.0,-999,0.01,,,0.12,,2013-07-12 22:58:00,
2013-07-12 19:00:00,67.0,-99.9,-100.00,North,-999,-999.0,-999.0,-999,0.01,,,0.13,,2013-07-12 23:00:00,
2013-07-12 19:46:00,67.0,-99.9,-100.00,North,-999,-999.0,-999.0,-999,0.01,,,0.13,,2013-07-12 23:46:00,
2013-07-12 21:00:00,64.0,-99.9,-100.00,North,-999,-999.0,-999.0,-999,0.05,,,0.42,,2013-07-13 01:00:00,
2013-07-12 21:52:00,64.0,-99.9,-100.00,North,-999,-999.0,-999.0,-999,0.05,,,0.42,,2013-07-13 01:52:00,
2013-07-12 21:59:00,64.0,-99.9,-100.00,North,-999,-999.0,-999.0,-999,0.05,,,0.42,,2013-07-13 01:59:00,
2013-07-12 23:00:00,64.0,-99.9,-100.00,North,-999,-999.0,-999.0,-999,0.00,,,0.42,,2013-07-13 03:00:00,